Flag for U.S.A. Weather past 2 weeks in Fort Worth, Texas, U.S.A.

Now
90 °F

Sunny.


Feels Like: 93 °F
Forecast: 77 / 96 °F
Wind: 3 mph from North

Location: Meacham International Airport

Current Time: Jul 24, 2014 at 12:50:48 PM

Latest Report: Jul 24, 2014 at 11:53 AM


Visibility: 10 mi

Pressure: 30.01 "Hg

Humidity: 47%

Dew point: 67 °F

Location of Fort WorthLocation

Historic Weather in Fort Worth — Graph

°F

Fort Worth temperature yesterday

Maximum temperature yesterday: 95 °F (at 2:53 PM)
Minimum temperature yesterday: 77 °F (at 6:53 AM)
Average temperature yesterday: 86 °F

Past Weeks' High & Low Weather Summary

 TemperatureHumidityPressure
High101 °F (Jul 14, 1:53 PM)94% (Jul 17, 11:53 AM)30.14 "Hg (Jul 17, 11:53 AM)
Low65 °F (Jul 18, 6:53 AM)25% (Jul 12, 12:53 PM)29.83 "Hg (Jul 16, 6:53 PM)
Average83 °F59%29.98 "Hg
* Reported Jul 9 11:53 AM — Jul 24 11:53 AM, Fort Worth, Weather by CustomWeather, © 2014

Note: Actual official high and low records may vary slightly from our data, if they occured in-between our weather recording intervals... More about our weather records

Advertising

Fort Worth weather history for previous 24 hours

 ConditionsComfort  
Time TempWeatherWind HumidityBarometerVisibility
11:53 AM
Jul 24
90 °FSunny.3 mph47%30.01 "Hg10 mi
10:53 AM88 °FSunny.No wind50%30.03 "Hg10 mi
9:53 AM85 °FSunny.No wind53%30.04 "Hg10 mi
8:53 AM82 °FPassing clouds.3 mph60%30.03 "Hg10 mi
7:53 AM79 °FPartly sunny.6 mph65%30.04 "Hg10 mi
6:53 AM77 °FPassing clouds.No wind69%30.03 "Hg10 mi
5:53 AM78 °FOvercast.6 mph66%30.01 "Hg10 mi
4:53 AM77 °FClear.3 mph69%30.00 "Hg10 mi
3:53 AM77 °FClear.No wind69%29.98 "Hg10 mi
2:53 AM77 °FClear.7 mph66%29.96 "Hg10 mi
1:53 AM78 °FClear.3 mph66%29.98 "Hg10 mi
12:53 AM78 °FClear.No wind66%29.99 "Hg10 mi
11:53 PM
Jul 23
79 °FClear.8 mph65%30.01 "Hg10 mi
10:53 PM79 °FClear.10 mph65%30.03 "Hg10 mi
9:53 PM86 °FPassing clouds.14 mph57%30.03 "Hg10 mi
8:53 PM91 °FSunny.5 mph52%29.99 "Hg10 mi
7:53 PM92 °FSunny.9 mph49%29.99 "Hg10 mi
6:53 PM94 °FSunny.8 mph46%29.97 "Hg10 mi
5:53 PM94 °FSunny.7 mph44%29.97 "Hg10 mi
4:53 PM95 °FScattered clouds.5 mph43%29.98 "Hg10 mi
3:53 PM95 °FScattered clouds.No wind40%30.00 "Hg10 mi
2:53 PM95 °FPassing clouds.6 mph39%30.03 "Hg10 mi
1:53 PM94 °FSunny.6 mph40%30.04 "Hg10 mi
12:53 PM91 °FPassing clouds.5 mph45%30.06 "Hg10 mi
Weather by CustomWeather, © 2014

See weather overviewHow to use our weather pages